APA110A LEPA-EDDM

Flight info

Callsign APA110A
Flight time N/A
Altitude 32000
Route MEROS DCT LAPIT DCT CHELY DCT LUMAS/N0435F340 DCT UNANA/N0431F300 DCT STP/N0441F360 DCT RAPED DCT PIGOS DCT EKSID DCT NOSTA DCT NOPMU DCT VAKON DCT TAGIP DCT GUNGO DCT TISAX DCT IVKAL T102 NINUR T101 BETOS BETOS1B
Aircraft A321/M-SDE3FGHIRWY/LB1

Departure

Time 2026-05-07 18:33
Airport Palma de Mallorca Airport (LEPA)

Arrival

Time N/A
Airport Munich Airport (EDDM)
Time Latitude Longitude Altitude Speed Heading
2026-05-07 17:34 39.55023 2.73488 39 ft 0 kts 165°
2026-05-07 18:14 39.55028 2.73486 37 ft 3 kts 163°
2026-05-07 18:14 39.55051 2.73471 38 ft 4 kts 129°
2026-05-07 18:14 39.55059 2.73444 38 ft 4 kts 73°
2026-05-07 18:14 39.55055 2.73431 38 ft 1 kts 58°
2026-05-07 18:15 39.55054 2.73430 38 ft 0 kts 58°
2026-05-07 18:17 39.55055 2.73431 38 ft 2 kts 58°
2026-05-07 18:17 39.55086 2.73495 38 ft 14 kts 58°
2026-05-07 18:17 39.55138 2.73606 38 ft 14 kts 59°
2026-05-07 18:17 39.55177 2.73719 38 ft 13 kts 97°
2026-05-07 18:18 39.55182 2.73828 38 ft 11 kts 85°
2026-05-07 18:18 39.55131 2.73887 38 ft 12 kts 148°
2026-05-07 18:18 39.55045 2.73954 38 ft 14 kts 149°
2026-05-07 18:18 39.54962 2.74019 38 ft 14 kts 148°
2026-05-07 18:19 39.54885 2.74080 38 ft 12 kts 148°
2026-05-07 18:19 39.54815 2.74122 38 ft 11 kts 178°
2026-05-07 18:19 39.54774 2.74090 37 ft 12 kts 232°
2026-05-07 18:19 39.54709 2.73960 38 ft 12 kts 238°
2026-05-07 18:20 39.54674 2.73886 38 ft 15 kts 238°
2026-05-07 18:20 39.54624 2.73781 38 ft 12 kts 238°
2026-05-07 18:20 39.54567 2.73661 37 ft 22 kts 239°
2026-05-07 18:20 39.54487 2.73487 38 ft 21 kts 238°
2026-05-07 18:21 39.54429 2.73368 38 ft 14 kts 237°
2026-05-07 18:21 39.54385 2.73276 38 ft 10 kts 238°
2026-05-07 18:21 39.54353 2.73210 38 ft 7 kts 238°
2026-05-07 18:21 39.54332 2.73164 38 ft 6 kts 239°
2026-05-07 18:22 39.54291 2.73077 38 ft 12 kts 239°
2026-05-07 18:22 39.54264 2.73020 38 ft 10 kts 239°
2026-05-07 18:22 39.54224 2.72938 38 ft 7 kts 230°
2026-05-07 18:22 39.54174 2.72926 38 ft 8 kts 150°
2026-05-07 18:23 39.54157 2.72960 38 ft 3 kts 111°
2026-05-07 18:23 39.54154 2.72974 38 ft 0 kts 102°
2026-05-07 18:30 39.54153 2.72981 38 ft 5 kts 100°
2026-05-07 18:31 39.54151 2.73072 38 ft 12 kts 90°
2026-05-07 18:31 39.54152 2.73169 38 ft 10 kts 90°
2026-05-07 18:31 39.54161 2.73241 37 ft 7 kts 60°
2026-05-07 18:31 39.54176 2.73273 38 ft 0 kts 59°
2026-05-07 18:32 39.54178 2.73276 38 ft 3 kts 59°
2026-05-07 18:32 39.54268 2.73472 38 ft 58 kts 59°
2026-05-07 18:33 39.54589 2.74148 38 ft 116 kts 58°
2026-05-07 18:33 39.55091 2.75211 47 ft 158 kts 59°
2026-05-07 18:33 39.55656 2.76427 628 ft 155 kts 59°
2026-05-07 18:33 39.56196 2.77634 1273 ft 154 kts 60°
2026-05-07 18:34 39.56738 2.78832 1842 ft 156 kts 60°
2026-05-07 18:34 39.57337 2.80123 2002 ft 180 kts 59°
2026-05-07 18:34 39.58031 2.81584 2173 ft 200 kts 60°
2026-05-07 18:34 39.58763 2.83161 2502 ft 210 kts 59°
2026-05-07 18:35 39.59515 2.84798 3121 ft 215 kts 60°
2026-05-07 18:35 39.60295 2.86451 3843 ft 215 kts 58°
2026-05-07 18:35 39.61093 2.88102 4512 ft 217 kts 60°
2026-05-07 18:35 39.61861 2.89776 5270 ft 217 kts 59°
2026-05-07 18:36 39.62626 2.91509 5787 ft 230 kts 61°
2026-05-07 18:36 39.63442 2.93415 6075 ft 253 kts 62°
2026-05-07 18:36 39.64306 2.95484 6587 ft 264 kts 62°
2026-05-07 18:36 39.65192 2.97599 7265 ft 269 kts 62°
2026-05-07 18:37 39.66108 2.99731 8022 ft 271 kts 62°
2026-05-07 18:37 39.67035 3.01891 8711 ft 276 kts 62°
2026-05-07 18:37 39.67961 3.04090 9423 ft 280 kts 63°
2026-05-07 18:37 39.68905 3.06322 10138 ft 284 kts 63°
2026-05-07 18:38 39.69899 3.08644 10355 ft 306 kts 62°
2026-05-07 18:38 39.70985 3.11128 10528 ft 327 kts 62°
2026-05-07 18:38 39.72133 3.13737 11018 ft 333 kts 62°
2026-05-07 18:38 39.73291 3.16362 11674 ft 338 kts 62°
2026-05-07 18:39 39.74472 3.19040 12230 ft 345 kts 62°
2026-05-07 18:39 39.75650 3.21762 12897 ft 347 kts 63°
2026-05-07 18:39 39.76823 3.24523 13506 ft 351 kts 63°
2026-05-07 18:39 39.78182 3.27194 14041 ft 358 kts 52°
2026-05-07 18:40 39.79812 3.29675 14572 ft 363 kts 51°
2026-05-07 18:40 39.81472 3.32171 15155 ft 367 kts 51°
2026-05-07 18:40 39.83157 3.34691 15736 ft 371 kts 51°
2026-05-07 18:40 39.84861 3.37240 16294 ft 375 kts 51°
2026-05-07 18:41 39.86579 3.39815 16856 ft 379 kts 51°
2026-05-07 18:41 39.88313 3.42421 17414 ft 383 kts 51°
2026-05-07 18:41 39.90071 3.45059 17971 ft 387 kts 51°
2026-05-07 18:41 39.91843 3.47725 18473 ft 391 kts 51°
2026-05-07 18:42 39.93632 3.50427 18925 ft 396 kts 51°
2026-05-07 18:42 39.95436 3.53157 19368 ft 400 kts 51°
2026-05-07 18:42 39.97264 3.55927 19794 ft 405 kts 51°
2026-05-07 18:42 39.99112 3.58717 20257 ft 409 kts 51°
2026-05-07 18:43 40.00981 3.61534 20692 ft 413 kts 51°
2026-05-07 18:43 40.02869 3.64381 21115 ft 417 kts 51°
2026-05-07 18:43 40.04776 3.67262 21537 ft 422 kts 50°
2026-05-07 18:43 40.06700 3.70179 21960 ft 426 kts 50°
2026-05-07 18:44 40.08642 3.73128 22367 ft 430 kts 50°
2026-05-07 18:44 40.10600 3.76109 22768 ft 435 kts 50°
2026-05-07 18:44 40.12580 3.79127 23164 ft 439 kts 50°
2026-05-07 18:44 40.14575 3.82173 23585 ft 442 kts 50°
2026-05-07 18:45 40.16578 3.85224 24016 ft 443 kts 50°
2026-05-07 18:45 40.18588 3.88286 24388 ft 446 kts 50°
2026-05-07 18:45 40.20612 3.91374 24765 ft 448 kts 51°
2026-05-07 18:45 40.22645 3.94486 25123 ft 451 kts 51°
2026-05-07 18:46 40.24690 3.97620 25467 ft 454 kts 51°
2026-05-07 18:46 40.26747 4.00778 25809 ft 458 kts 51°
2026-05-07 18:46 40.28819 4.03965 26139 ft 461 kts 51°
2026-05-07 18:46 40.30907 4.07171 26446 ft 464 kts 51°
2026-05-07 18:47 40.33005 4.10394 26762 ft 467 kts 51°
2026-05-07 18:47 40.35114 4.13639 27058 ft 470 kts 51°
2026-05-07 18:47 40.37239 4.16913 27356 ft 472 kts 51°
2026-05-07 18:47 40.39371 4.20207 27627 ft 475 kts 51°
2026-05-07 18:48 40.41518 4.23526 27907 ft 478 kts 51°
2026-05-07 18:48 40.43677 4.26865 28199 ft 481 kts 51°
2026-05-07 18:48 40.45881 4.30187 28474 ft 484 kts 47°
2026-05-07 18:48 40.48369 4.33101 28736 ft 488 kts 37°
2026-05-07 18:49 40.51266 4.35547 28993 ft 490 kts 27°
2026-05-07 18:49 40.54391 4.37353 29253 ft 491 kts 17°
2026-05-07 18:49 40.57640 4.38488 29500 ft 491 kts
2026-05-07 18:49 40.61010 4.39284 29757 ft 493 kts
2026-05-07 18:50 40.64393 4.40085 30014 ft 495 kts
2026-05-07 18:50 40.67788 4.40897 30245 ft 497 kts
2026-05-07 18:50 40.71203 4.41719 30480 ft 499 kts
2026-05-07 18:50 40.74621 4.42545 30802 ft 499 kts
2026-05-07 18:51 40.78035 4.43370 31139 ft 499 kts
2026-05-07 18:51 40.81447 4.44191 31472 ft 499 kts
2026-05-07 18:51 40.84859 4.45011 31812 ft 499 kts
2026-05-07 18:51 40.88271 4.45831 32139 ft 499 kts
2026-05-07 18:52 40.91688 4.46653 32468 ft 499 kts
2026-05-07 18:52 40.95100 4.47474 32788 ft 499 kts
2026-05-07 18:52 40.98513 4.48300 33107 ft 499 kts
2026-05-07 18:52 41.01931 4.49133 33419 ft 499 kts
2026-05-07 18:53 41.05345 4.49968 33760 ft 499 kts
2026-05-07 18:53 41.08759 4.50804 34058 ft 499 kts
2026-05-07 18:53 41.12174 4.51637 34329 ft 499 kts
2026-05-07 18:53 41.15586 4.52468 34607 ft 498 kts
2026-05-07 18:54 41.18992 4.53298 34893 ft 497 kts
2026-05-07 18:54 41.22392 4.54125 35168 ft 497 kts
2026-05-07 18:54 41.25787 4.54953 35441 ft 496 kts
2026-05-07 18:54 41.29174 4.55785 35738 ft 494 kts
2026-05-07 18:55 41.32560 4.56617 35933 ft 494 kts
2026-05-07 18:55 41.39293 4.58269 35975 ft 492 kts
2026-05-07 18:56 41.46020 4.59930 35976 ft 492 kts
2026-05-07 18:56 41.52738 4.61588 35974 ft 490 kts
2026-05-07 18:57 41.59390 4.63212 35975 ft 489 kts
2026-05-07 18:57 41.66089 4.64867 35975 ft 489 kts
2026-05-07 18:58 41.72577 4.67706 35987 ft 495 kts 26°